Location: Newark
(15.4608°S, 41.1635°W)
Time: 08:40:16
(UTC+00:00)

Transit 4A - Pass Details

Date: 04 March 2021
Orbit: 869 x 975 km, 66.8° (Epoch: 22 April)

Event Time Altitude Azimuth Distance (km) Brightness Sun altitude
Rises 22:18:28 0° 21° (NNE) 3,445 - -18.0°
Reaches altitude 10° 22:22:28 10° 49° (NE) 2,508 - -18.9°
Maximum altitude 22:24:56 13° 74° (ENE) 2,312 - -19.5°
Drops below altitude 10° 22:27:24 10° 100° (E) 2,518 - -20.1°
Sets 22:31:25 0° 127° (SE) 3,470 - -21.0°
